{"data":{"norad_id":68129,"epoch":"2026-05-25T05:23:09.525984Z","epoch_age_seconds":69754,"freshness":"FRESH","line1":"1 68129U 26047A   26145.22441581 -.00000087  00000+0  80077-4 0  9991","line2":"2 68129  50.0008 138.7438 0000220 359.6963   0.3909 13.29330425 10015","mean_motion":13.29330425,"eccentricity":2.2e-5,"inclination_deg":50.0008,"raan_deg":138.7438,"arg_perigee_deg":359.6963,"mean_anomaly_deg":0.3909,"bstar":8.0077e-5,"rev_number":1001,"period_min":108.32521192013,"perigee_km":1149.1242638342,"apogee_km":1149.4554706164,"semimajor_km":7527.4268672253,"source":"CELESTRAK","updated_at":"2026-05-25T13:38:07.575380Z"}}